| time (UTC) | temp C | wind direction | speed KPH | gust KPH | rain 1hr cm | rain 24hr cm | rain mn cm | humidity % | barometer mb |
| 20260502164040 | 12 | 209 | 3.2 | 6.4 | 0.00 | 0.08 | 0.08 | 80 | 1013.4 |
| 20260502163541 | 12 | 209 | 3.2 | 6.4 | 0.00 | 0.08 | 0.08 | 80 | 1013.5 |
| 20260502163040 | 12 | 209 | 3.2 | 6.4 | 0.00 | 0.08 | 0.08 | 81 | 1013.5 |
| 20260502162542 | 12 | 209 | 1.6 | 9.7 | 0.00 | 0.08 | 0.08 | 82 | 1013.5 |
| 20260502162039 | 12 | 209 | 3.2 | 9.7 | 0.00 | 0.08 | 0.08 | 82 | 1013.5 |
| 20260502161640 | 12 | 209 | 4.8 | 8.0 | 0.00 | 0.08 | 0.08 | 82 | 1013.4 |
| 20260502161038 | 12 | 213 | 3.2 | 6.4 | 0.00 | 0.08 | 0.08 | 83 | 1013.5 |
| 20260502160541 | 12 | 213 | 1.6 | 8.0 | 0.00 | 0.08 | 0.08 | 83 | 1013.5 |
| 20260502152038 | 11 | 214 | 6.4 | 9.7 | 0.00 | 0.08 | 0.08 | 85 | 1013.5 |
| 20260502151537 | 11 | 205 | 1.6 | 4.8 | 0.00 | 0.08 | 0.08 | 85 | 1013.6 |
| 20260502151037 | 11 | 205 | 1.6 | 4.8 | 0.00 | 0.08 | 0.08 | 85 | 1013.5 |
| 20260502150536 | 11 | 205 | 1.6 | 6.4 | 0.00 | 0.08 | 0.08 | 85 | 1013.5 |
| 20260502130527 | 11 | 215 | 1.6 | 4.8 | 0.00 | 0.08 | 0.08 | 87 | 1014.0 |
| 20260502123525 | 11 | 360 | 1.6 | 4.8 | 0.00 | 0.08 | 0.08 | 90 | 1013.9 |
| 20260502123025 | 11 | 360 | 0.0 | 8.0 | 0.00 | 0.08 | 0.08 | 91 | 1013.9 |
| 20260502122523 | 10 | 213 | 3.2 | 8.0 | 0.00 | 0.08 | 0.08 | 91 | 1013.9 |
| 20260502122122 | 11 | 213 | 1.6 | 4.8 | 0.00 | 0.08 | 0.08 | 92 | 1013.9 |
| 20260502121535 | 11 | 213 | 0.0 | 4.8 | 0.00 | 0.08 | 0.08 | 92 | 1014.1 |
| 20260502121019 | 11 | 213 | 1.6 | 4.8 | 0.00 | 0.08 | 0.08 | 92 | 1014.1 |
| 20260502120518 | 10 | 213 | 1.6 | 6.4 | 0.00 | 0.08 | 0.08 | 92 | 1014.0 |
| 20260502115517 | 10 | 360 | 3.2 | 9.7 | 0.00 | 0.08 | 0.08 | 92 | 1014.1 |
| 20260502115017 | 10 | 360 | 4.8 | 9.7 | 0.03 | 0.08 | 0.08 | 92 | 1014.3 |
| 20260502114517 | 10 | 360 | 3.2 | 12.9 | 0.03 | 0.08 | 0.08 | 92 | 1014.4 |
| 20260502114016 | 10 | 360 | 6.4 | 12.9 | 0.05 | 0.08 | 0.08 | 92 | 1014.3 |
| 20260502113517 | 10 | 360 | 4.8 | 9.7 | 0.08 | 0.08 | 0.08 | 92 | 1014.1 |
| 20260502113015 | 10 | 360 | 4.8 | 9.7 | 0.08 | 0.08 | 0.08 | 92 | 1013.9 |
| 20260502112515 | 10 | 189 | 1.6 | 9.7 | 0.08 | 0.08 | 0.08 | 92 | 1013.6 |
| 20260502112017 | 10 | 189 | 6.4 | 9.7 | 0.08 | 0.08 | 0.08 | 92 | 1013.5 |
| 20260502111514 | 10 | 188 | 3.2 | 8.0 | 0.08 | 0.08 | 0.08 | 91 | 1013.6 |
| 20260502111014 | 10 | 188 | 4.8 | 8.0 | 0.08 | 0.08 | 0.08 | 91 | 1013.4 |
| 20260502110514 | 10 | 171 | 1.6 | 6.4 | 0.08 | 0.08 | 0.08 | 91 | 1013.4 |
| 20260502110018 | 10 | 169 | 1.6 | 8.0 | 0.08 | 0.08 | 0.08 | 91 | 1013.2 |
| 20260502105513 | 10 | 169 | 4.8 | 8.0 | 0.08 | 0.08 | 0.08 | 90 | 1013.2 |
| 20260502105114 | 10 | 244 | 3.2 | 6.4 | 0.05 | 0.05 | 0.05 | 90 | 1013.2 |
| 20260502104512 | 10 | 360 | 0.0 | 4.8 | 0.05 | 0.05 | 0.05 | 90 | 1013.2 |
| 20260502104011 | 10 | 248 | 0.0 | 6.4 | 0.03 | 0.03 | 0.03 | 89 | 1013.3 |
| 20260502103511 | 10 | 248 | 3.2 | 11.3 | 0.00 | 0.00 | 0.00 | 89 | 1013.7 |
| 20260502103011 | 10 | 360 | 4.8 | 11.3 | 0.00 | 0.00 | 0.00 | 88 | 1013.6 |
| 20260502102511 | 10 | 360 | 6.4 | 9.7 | 0.00 | 0.00 | 0.00 | 88 | 1013.5 |
| 20260502102011 | 10 | 360 | 3.2 | 12.9 | 0.00 | 0.00 | 0.00 | 88 | 1013.5 |
| 20260502101513 | 10 | 360 | 4.8 | 16.1 | 0.00 | 0.00 | 0.00 | 88 | 1013.6 |
| 20260502101010 | 10 | 360 | 8.0 | 19.3 | 0.00 | 0.00 | 0.00 | 88 | 1013.7 |
| 20260502100510 | 10 | 360 | 11.3 | 19.3 | 0.00 | 0.00 | 0.00 | 88 | 1013.9 |
| 20260502091507 | 10 | 229 | 9.7 | 16.1 | 0.00 | 0.00 | 0.00 | 88 | 1013.4 |
| 20260502091006 | 10 | 227 | 8.0 | 16.1 | 0.00 | 0.00 | 0.00 | 88 | 1013.3 |
| 20260502090505 | 10 | 244 | 8.0 | 17.7 | 0.00 | 0.00 | 0.00 | 87 | 1013.3 |
| 20260502071051 | 10 | 276 | 9.7 | 24.1 | 0.00 | 0.00 | 0.00 | 90 | 1013.4 |
| 20260502070551 | 10 | 235 | 12.9 | 24.1 | 0.00 | 0.00 | 0.00 | 90 | 1013.6 |
| 20260502070050 | 10 | 236 | 16.1 | 25.7 | 0.00 | 0.00 | 0.00 | 90 | 1013.5 |
| 20260502065550 | 10 | 227 | 14.5 | 25.7 | 0.00 | 0.00 | 0.00 | 90 | 1013.5 |
| 20260502065049 | 10 | 230 | 16.1 | 24.1 | 0.00 | 0.00 | 0.00 | 90 | 1013.6 |
| 20260502064548 | 10 | 221 | 14.5 | 27.4 | 0.00 | 0.00 | 0.00 | 90 | 1013.6 |
| 20260502064050 | 10 | 234 | 17.7 | 27.4 | 0.00 | 0.00 | 0.00 | 90 | 1013.6 |
| 20260502063547 | 10 | 254 | 12.9 | 27.4 | 0.00 | 0.00 | 0.00 | 90 | 1013.6 |
| 20260502063048 | 10 | 232 | 9.7 | 24.1 | 0.00 | 0.00 | 0.00 | 90 | 1013.6 |
| 20260502062546 | 10 | 250 | 17.7 | 24.1 | 0.00 | 0.00 | 0.00 | 90 | 1013.7 |
| 20260502062046 | 10 | 205 | 12.9 | 24.1 | 0.00 | 0.00 | 0.00 | 89 | 1013.7 |
| 20260502061545 | 10 | 229 | 12.9 | 19.3 | 0.00 | 0.00 | 0.00 | 89 | 1013.9 |
| 20260502061044 | 10 | 203 | 9.7 | 19.3 | 0.00 | 0.00 | 0.00 | 89 | 1014.0 |
| 20260502060544 | 10 | 205 | 12.9 | 24.1 | 0.00 | 0.00 | 0.00 | 89 | 1014.0 |
| 20260502060043 | 10 | 238 | 14.5 | 24.1 | 0.00 | 0.00 | 0.00 | 89 | 1014.0 |
| 20260502055543 | 10 | 236 | 17.7 | 24.1 | 0.00 | 0.00 | 0.00 | 88 | 1014.0 |
| 20260502055042 | 10 | 245 | 12.9 | 20.9 | 0.00 | 0.00 | 0.00 | 88 | 1014.0 |
| 20260502054544 | 10 | 213 | 9.7 | 22.5 | 0.00 | 0.00 | 0.00 | 88 | 1014.1 |
| 20260502054040 | 10 | 227 | 9.7 | 17.7 | 0.00 | 0.00 | 0.00 | 88 | 1013.9 |
| 20260502053540 | 10 | 226 | 6.4 | 16.1 | 0.00 | 0.00 | 0.00 | 87 | 1013.8 |
| 20260502053040 | 10 | 210 | 6.4 | 16.1 | 0.00 | 0.00 | 0.00 | 87 | 1013.5 |
| 20260502052539 | 10 | 200 | 8.0 | 17.7 | 0.00 | 0.00 | 0.00 | 86 | 1013.5 |
| 20260502052043 | 10 | 223 | 8.0 | 17.7 | 0.00 | 0.00 | 0.00 | 85 | 1013.7 |
| 20260502051539 | 11 | 236 | 9.7 | 16.1 | 0.00 | 0.00 | 0.00 | 85 | 1013.6 |
| 20260502051038 | 11 | 225 | 9.7 | 14.5 | 0.00 | 0.00 | 0.00 | 85 | 1013.7 |
| 20260502050538 | 11 | 242 | 6.4 | 12.9 | 0.00 | 0.00 | 0.00 | 85 | 1013.9 |
| 20260502050042 | 11 | 221 | 8.0 | 14.5 | 0.00 | 0.00 | 0.00 | 84 | 1013.9 |
| 20260502045538 | 11 | 218 | 6.4 | 19.3 | 0.00 | 0.00 | 0.00 | 83 | 1013.9 |
| 20260502045038 | 11 | 213 | 14.5 | 19.3 | 0.00 | 0.00 | 0.00 | 83 | 1014.0 |
| 20260502044536 | 11 | 222 | 8.0 | 17.7 | 0.00 | 0.00 | 0.00 | 82 | 1014.0 |
| 20260502044036 | 11 | 240 | 12.9 | 19.3 | 0.00 | 0.00 | 0.00 | 82 | 1013.8 |
| 20260502043536 | 11 | 237 | 14.5 | 19.3 | 0.00 | 0.00 | 0.00 | 83 | 1014.0 |
| 20260502043037 | 11 | 221 | 11.3 | 22.5 | 0.00 | 0.00 | 0.00 | 83 | 1014.1 |
| 20260502042537 | 11 | 245 | 14.5 | 25.7 | 0.00 | 0.00 | 0.00 | 83 | 1014.2 |
| 20260502042034 | 11 | 237 | 16.1 | 25.7 | 0.00 | 0.00 | 0.00 | 83 | 1014.2 |
| 20260502041533 | 11 | 234 | 14.5 | 22.5 | 0.00 | 0.00 | 0.00 | 83 | 1014.0 |
| 20260502041031 | 11 | 229 | 11.3 | 22.5 | 0.00 | 0.00 | 0.00 | 82 | 1013.9 |
| 20260502040532 | 11 | 271 | 12.9 | 25.7 | 0.00 | 0.00 | 0.00 | 81 | 1013.9 |
| 20260502040028 | 11 | 246 | 9.7 | 25.7 | 0.00 | 0.00 | 0.00 | 81 | 1013.9 |
| 20260502035528 | 11 | 217 | 9.7 | 20.9 | 0.00 | 0.00 | 0.00 | 81 | 1013.9 |
| 20260502035128 | 11 | 225 | 12.9 | 20.9 | 0.00 | 0.00 | 0.00 | 80 | 1014.0 |
| 20260502034528 | 11 | 215 | 11.3 | 24.1 | 0.00 | 0.00 | 0.00 | 80 | 1013.9 |
| 20260502034027 | 11 | 190 | 9.7 | 19.3 | 0.00 | 0.00 | 0.00 | 80 | 1013.8 |
| 20260502033526 | 11 | 246 | 11.3 | 19.3 | 0.00 | 0.00 | 0.00 | 80 | 1013.7 |
| 20260502033034 | 11 | 194 | 8.0 | 19.3 | 0.00 | 0.00 | 0.00 | 80 | 1013.8 |
| 20260502032527 | 11 | 210 | 11.3 | 25.7 | 0.00 | 0.00 | 0.00 | 80 | 1013.9 |
| 20260502032027 | 11 | 185 | 8.0 | 25.7 | 0.00 | 0.00 | 0.00 | 81 | 1013.9 |
| 20260502031527 | 11 | 212 | 11.3 | 29.0 | 0.00 | 0.00 | 0.00 | 81 | 1014.1 |
| 20260502031027 | 11 | 212 | 16.1 | 30.6 | 0.00 | 0.00 | 0.00 | 82 | 1014.2 |
| 20260502030526 | 11 | 219 | 17.7 | 30.6 | 0.00 | 0.00 | 0.00 | 82 | 1014.2 |
| 20260502030026 | 11 | 229 | 17.7 | 29.0 | 0.00 | 0.00 | 0.00 | 83 | 1014.4 |
| 20260502025526 | 10 | 275 | 19.3 | 37.0 | 0.00 | 0.00 | 0.00 | 83 | 1014.4 |
| 20260502025027 | 10 | 215 | 20.9 | 35.4 | 0.00 | 0.00 | 0.00 | 84 | 1014.4 |
| 20260502024525 | 10 | 200 | 22.5 | 35.4 | 0.00 | 0.00 | 0.00 | 85 | 1014.4 |
| 20260502024025 | 10 | 196 | 22.5 | 33.8 | 0.00 | 0.00 | 0.00 | 85 | 1014.1 |
| 20260502023525 | 10 | 185 | 22.5 | 38.6 | 0.00 | 0.00 | 0.00 | 85 | 1014.1 |
| 20260502023024 | 10 | 202 | 27.4 | 43.5 | 0.00 | 0.00 | 0.00 | 85 | 1014.0 |
| 20260502022524 | 10 | 193 | 25.7 | 40.2 | 0.00 | 0.00 | 0.00 | 85 | 1014.0 |
| 20260502022024 | 10 | 200 | 25.7 | 40.2 | 0.00 | 0.00 | 0.00 | 84 | 1013.9 |
| 20260502021523 | 10 | 171 | 25.7 | 40.2 | 0.00 | 0.00 | 0.00 | 85 | 1014.1 |
| 20260502021023 | 10 | 195 | 29.0 | 40.2 | 0.00 | 0.00 | 0.00 | 85 | 1014.0 |
| 20260502020523 | 10 | 198 | 27.4 | 43.5 | 0.00 | 0.00 | 0.00 | 84 | 1014.1 |
| 20260502020023 | 10 | 200 | 29.0 | 40.2 | 0.00 | 0.00 | 0.00 | 84 | 1014.0 |
| 20260502015622 | 10 | 178 | 27.4 | 37.0 | 0.00 | 0.00 | 0.00 | 84 | 1014.0 |
| 20260502015022 | 10 | 212 | 25.7 | 38.6 | 0.00 | 0.00 | 0.00 | 84 | 1014.1 |
| 20260502014527 | 10 | 202 | 27.4 | 37.0 | 0.00 | 0.00 | 0.00 | 84 | 1014.0 |
| 20260502014021 | 10 | 194 | 27.4 | 37.0 | 0.00 | 0.00 | 0.00 | 84 | 1014.0 |
| 20260502013521 | 11 | 186 | 24.1 | 40.2 | 0.00 | 0.00 | 0.00 | 84 | 1014.1 |
| 20260502013021 | 10 | 181 | 27.4 | 40.2 | 0.00 | 0.00 | 0.00 | 83 | 1014.0 |
| 20260502012521 | 11 | 360 | 30.6 | 37.0 | 0.00 | 0.00 | 0.00 | 83 | 1014.0 |
| 20260502012021 | 11 | 360 | 27.4 | 41.8 | 0.00 | 0.00 | 0.00 | 83 | 1014.0 |
| 20260502011521 | 11 | 360 | 32.2 | 48.3 | 0.00 | 0.00 | 0.00 | 82 | 1013.9 |
| 20260502011021 | 11 | 360 | 29.0 | 48.3 | 0.00 | 0.00 | 0.00 | 82 | 1013.7 |
| 20260502010520 | 11 | 360 | 32.2 | 46.7 | 0.00 | 0.00 | 0.00 | 81 | 1013.5 |
| 20260502010020 | 11 | 360 | 29.0 | 46.7 | 0.00 | 0.03 | 0.00 | 81 | 1013.5 |
| 20260502005519 | 11 | 360 | 27.4 | 43.5 | 0.00 | 0.03 | 0.00 | 80 | 1013.6 |
| 20260502005019 | 11 | 202 | 25.7 | 40.2 | 0.00 | 0.03 | 0.00 | 80 | 1013.6 |
| 20260502004534 | 11 | 198 | 25.7 | 41.8 | 0.00 | 0.03 | 0.00 | 79 | 1013.6 |
| 20260502004019 | 11 | 360 | 27.4 | 40.2 | 0.00 | 0.03 | 0.00 | 79 | 1013.6 |
| 20260502003518 | 11 | 360 | 29.0 | 38.6 | 0.00 | 0.03 | 0.00 | 79 | 1013.7 |
| 20260502003018 | 11 | 360 | 24.1 | 38.6 | 0.00 | 0.03 | 0.00 | 79 | 1013.7 |
| 20260502002518 | 11 | 360 | 29.0 | 38.6 | 0.00 | 0.03 | 0.00 | 80 | 1013.6 |
| 20260502002018 | 11 | 360 | 25.7 | 35.4 | 0.00 | 0.03 | 0.00 | 80 | 1013.5 |
| 20260502001518 | 11 | 360 | 22.5 | 37.0 | 0.00 | 0.03 | 0.00 | 81 | 1013.5 |
| 20260502001018 | 11 | 360 | 22.5 | 41.8 | 0.00 | 0.03 | 0.00 | 81 | 1013.3 |
| 20260502000517 | 11 | 360 | 25.7 | 41.8 | 0.00 | 0.03 | 0.00 | 81 | 1013.3 |
| 20260502000018 | 11 | 360 | 17.7 | 37.0 | 0.00 | 0.03 | 0.00 | 81 | 1013.3 |
| 20260501235518 | 11 | 360 | 24.1 | 37.0 | 0.00 | 0.03 | 0.00 | 81 | 1013.3 |
| 20260501235017 | 11 | 181 | 19.3 | 37.0 | 0.00 | 0.03 | 0.00 | 82 | 1013.3 |
| 20260501234525 | 11 | 225 | 19.3 | 32.2 | 0.00 | 0.03 | 0.00 | 82 | 1013.3 |
| 20260501234016 | 11 | 360 | 20.9 | 38.6 | 0.00 | 0.03 | 0.00 | 81 | 1013.3 |
| 20260501233517 | 11 | 360 | 24.1 | 41.8 | 0.00 | 0.03 | 0.00 | 81 | 1013.2 |
| 20260501233016 | 11 | 360 | 25.7 | 41.8 | 0.00 | 0.03 | 0.00 | 81 | 1013.2 |
| 20260501232515 | 11 | 360 | 22.5 | 35.4 | 0.00 | 0.03 | 0.00 | 81 | 1013.1 |
| 20260501232016 | 11 | 360 | 20.9 | 37.0 | 0.00 | 0.03 | 0.00 | 80 | 1013.0 |
| 20260501231519 | 11 | 211 | 17.7 | 35.4 | 0.00 | 0.03 | 0.00 | 80 | 1013.0 |
| 20260501231015 | 11 | 201 | 20.9 | 35.4 | 0.00 | 0.03 | 0.00 | 79 | 1013.0 |
| 20260501230515 | 11 | 207 | 22.5 | 43.5 | 0.00 | 0.03 | 0.00 | 79 | 1012.9 |
| 20260501230015 | 11 | 194 | 24.1 | 43.5 | 0.00 | 0.08 | 0.00 | 78 | 1013.0 |
| 20260501225514 | 11 | 180 | 25.7 | 43.5 | 0.00 | 0.08 | 0.00 | 78 | 1012.9 |
| 20260501225014 | 11 | 202 | 25.7 | 43.5 | 0.00 | 0.08 | 0.00 | 78 | 1012.9 |
| 20260501224514 | 11 | 190 | 22.5 | 35.4 | 0.00 | 0.08 | 0.00 | 78 | 1012.8 |
| 20260501224013 | 11 | 181 | 22.5 | 40.2 | 0.00 | 0.08 | 0.00 | 78 | 1013.0 |
| 20260501223513 | 11 | 233 | 24.1 | 40.2 | 0.00 | 0.08 | 0.00 | 78 | 1012.9 |
| 20260501223013 | 11 | 82 | 22.5 | 40.2 | 0.00 | 0.08 | 0.00 | 79 | 1013.0 |
| 20260501222513 | 11 | 170 | 24.1 | 40.2 | 0.00 | 0.08 | 0.00 | 79 | 1013.0 |
| 20260501222013 | 11 | 198 | 22.5 | 38.6 | 0.00 | 0.08 | 0.00 | 79 | 1013.1 |
| 20260501221513 | 11 | 178 | 25.7 | 38.6 | 0.00 | 0.08 | 0.00 | 78 | 1013.1 |
| 20260501221012 | 11 | 192 | 25.7 | 40.2 | 0.00 | 0.08 | 0.00 | 79 | 1013.1 |
| 20260501220512 | 11 | 215 | 25.7 | 40.2 | 0.00 | 0.08 | 0.00 | 79 | 1013.0 |
| 20260501220012 | 11 | 194 | 24.1 | 43.5 | 0.00 | 0.08 | 0.00 | 79 | 1013.0 |
| 20260501215512 | 11 | 207 | 24.1 | 49.9 | 0.00 | 0.08 | 0.00 | 78 | 1013.0 |
| 20260501215011 | 11 | 204 | 30.6 | 49.9 | 0.00 | 0.08 | 0.00 | 77 | 1013.1 |
| 20260501214511 | 11 | 204 | 32.2 | 41.8 | 0.00 | 0.08 | 0.00 | 77 | 1013.0 |
| 20260501214012 | 11 | 231 | 29.0 | 43.5 | 0.00 | 0.08 | 0.00 | 76 | 1013.0 |
| 20260501213509 | 11 | 204 | 27.4 | 48.3 | 0.00 | 0.08 | 0.00 | 76 | 1012.9 |
| 20260501213009 | 11 | 209 | 27.4 | 48.3 | 0.00 | 0.08 | 0.00 | 75 | 1012.8 |
| 20260501212508 | 11 | 219 | 30.6 | 45.1 | 0.00 | 0.08 | 0.00 | 75 | 1012.8 |
| 20260501212008 | 11 | 174 | 32.2 | 43.5 | 0.00 | 0.08 | 0.00 | 74 | 1012.8 |
| 20260501211508 | 11 | 196 | 30.6 | 46.7 | 0.00 | 0.08 | 0.00 | 75 | 1012.7 |
| 20260501211008 | 11 | 201 | 35.4 | 46.7 | 0.00 | 0.08 | 0.00 | 73 | 1012.7 |
| 20260501210508 | 11 | 189 | 30.6 | 45.1 | 0.00 | 0.08 | 0.00 | 72 | 1012.7 |
| 20260501210007 | 11 | 192 | 30.6 | 54.7 | 0.00 | 0.08 | 0.00 | 72 | 1012.7 |
| 20260501205506 | 11 | 198 | 29.0 | 46.7 | 0.00 | 0.08 | 0.00 | 71 | 1012.7 |
| 20260501205007 | 11 | 193 | 32.2 | 46.7 | 0.00 | 0.08 | 0.00 | 70 | 1012.6 |
| 20260501204505 | 11 | 212 | 33.8 | 48.3 | 0.00 | 0.08 | 0.00 | 69 | 1012.7 |
| 20260501204005 | 11 | 204 | 33.8 | 46.7 | 0.00 | 0.08 | 0.00 | 70 | 1012.6 |
| 20260501203505 | 11 | 169 | 30.6 | 48.3 | 0.00 | 0.08 | 0.00 | 69 | 1012.7 |
| 20260501203005 | 12 | 199 | 30.6 | 48.3 | 0.00 | 0.08 | 0.00 | 69 | 1012.7 |
| 20260501202504 | 12 | 198 | 33.8 | 43.5 | 0.00 | 0.08 | 0.00 | 69 | 1012.5 |
| 20260501202004 | 12 | 172 | 27.4 | 45.1 | 0.00 | 0.08 | 0.00 | 67 | 1012.5 |
| 20260501201503 | 12 | 196 | 27.4 | 45.1 | 0.00 | 0.08 | 0.00 | 63 | 1012.6 |
| 20260501201003 | 12 | 194 | 27.4 | 40.2 | 0.00 | 0.08 | 0.00 | 61 | 1012.5 |
| 20260501200503 | 13 | 199 | 20.9 | 40.2 | 0.00 | 0.08 | 0.00 | 64 | 1012.6 |
| 20260501200003 | 12 | 190 | 27.4 | 40.2 | 0.00 | 0.08 | 0.00 | 65 | 1012.6 |
| 20260501195503 | 13 | 200 | 25.7 | 35.4 | 0.00 | 0.08 | 0.00 | 60 | 1012.6 |
| 20260501195003 | 13 | 187 | 19.3 | 35.4 | 0.00 | 0.08 | 0.00 | 59 | 1012.6 |
| 20260501194502 | 13 | 189 | 22.5 | 38.6 | 0.00 | 0.08 | 0.00 | 60 | 1012.6 |
| 20260501194001 | 12 | 206 | 24.1 | 38.6 | 0.00 | 0.08 | 0.00 | 63 | 1012.7 |
| 20260501193501 | 13 | 193 | 22.5 | 33.8 | 0.00 | 0.08 | 0.00 | 61 | 1012.7 |
| 20260501193001 | 13 | 201 | 17.7 | 35.4 | 0.00 | 0.08 | 0.00 | 64 | 1012.7 |
| 20260501192501 | 13 | 215 | 20.9 | 35.4 | 0.00 | 0.08 | 0.00 | 62 | 1012.8 |
| 20260501192001 | 14 | 214 | 12.9 | 32.2 | 0.00 | 0.08 | 0.00 | 60 | 1012.8 |
| 20260501191603 | 15 | 207 | 19.3 | 30.6 | 0.00 | 0.08 | 0.00 | 52 | 1012.7 |
| 20260501191101 | 15 | 228 | 17.7 | 25.7 | 0.00 | 0.08 | 0.00 | 51 | 1012.9 |
| 20260501190559 | 15 | 242 | 17.7 | 25.7 | 0.00 | 0.08 | 0.00 | 51 | 1012.9 |
| 20260501190059 | 15 | 239 | 16.1 | 25.7 | 0.00 | 0.08 | 0.00 | 48 | 1013.0 |
| 20260501185558 | 15 | 212 | 16.1 | 27.4 | 0.00 | 0.08 | 0.00 | 50 | 1013.0 |
| 20260501185059 | 15 | 227 | 17.7 | 30.6 | 0.00 | 0.08 | 0.00 | 49 | 1013.2 |
| 20260501184601 | 15 | 217 | 22.5 | 30.6 | 0.00 | 0.08 | 0.00 | 49 | 1013.1 |
| 20260501184058 | 15 | 229 | 20.9 | 29.0 | 0.00 | 0.08 | 0.00 | 50 | 1013.2 |
| 20260501183557 | 14 | 246 | 19.3 | 32.2 | 0.00 | 0.08 | 0.00 | 49 | 1013.2 |
| 20260501183059 | 14 | 239 | 22.5 | 33.8 | 0.00 | 0.08 | 0.00 | 51 | 1013.2 |
| 20260501182557 | 14 | 234 | 22.5 | 33.8 | 0.00 | 0.08 | 0.00 | 51 | 1013.2 |
| 20260501182059 | 14 | 228 | 20.9 | 33.8 | 0.00 | 0.08 | 0.00 | 51 | 1013.2 |
| 20260501181557 | 14 | 211 | 19.3 | 33.8 | 0.00 | 0.08 | 0.00 | 51 | 1013.4 |
| 20260501181056 | 14 | 212 | 17.7 | 27.4 | 0.00 | 0.08 | 0.00 | 51 | 1013.3 |
| 20260501180556 | 14 | 215 | 19.3 | 30.6 | 0.00 | 0.08 | 0.00 | 52 | 1013.3 |
| 20260501180057 | 14 | 242 | 19.3 | 30.6 | 0.00 | 0.08 | 0.00 | 54 | 1013.3 |
| 20260501175558 | 14 | 233 | 17.7 | 27.4 | 0.00 | 0.08 | 0.00 | 53 | 1013.4 |
| 20260501175057 | 13 | 175 | 12.9 | 30.6 | 0.00 | 0.08 | 0.00 | 54 | 1013.4 |
| 20260501174636 | 13 | 223 | 14.5 | 33.8 | 0.00 | 0.08 | 0.00 | 54 | 1013.4 |
| 20260501174054 | 13 | 258 | 22.5 | 33.8 | 0.00 | 0.08 | 0.00 | 53 | 1013.5 |
| 20260501173558 | 13 | 238 | 22.5 | 30.6 | 0.00 | 0.08 | 0.00 | 57 | 1013.5 |
| 20260501173102 | 13 | 166 | 17.7 | 32.2 | 0.00 | 0.08 | 0.00 | 58 | 1013.5 |
| 20260501172557 | 13 | 240 | 20.9 | 32.2 | 0.00 | 0.08 | 0.00 | 56 | 1013.5 |
| 20260501172054 | 13 | 205 | 20.9 | 33.8 | 0.00 | 0.08 | 0.00 | 56 | 1013.6 |
| 20260501171555 | 13 | 253 | 24.1 | 32.2 | 0.00 | 0.08 | 0.00 | 54 | 1013.6 |